Fort Hood, TX

11:29 AM CST on November 20, 2019 (GMT -0600)
Killeen-Fort Hood Regional

Weather History for KGRK - September, 2019

Change the Weather History Date:

Tuesday, September 17, 2019

  Actual Average Record
Temperature  
Mean Temperature 78 °F -  
Max Temperature 88 °F 86 °F 102 °F (1997)
Min Temperature 70 °F 66 °F 55 °F (2008)
Cooling Degree Days 14    
Growing Degree Days 28 (Base 50)    
Moisture  
Dew Point 68 °F    
Average Humidity 68    
Maximum Humidity 88    
Minimum Humidity 52    
Precipitation  
Precipitation 0.00 in - - ()
Sea Level Pressure  
Sea Level Pressure 29.92 in    
Wind  
Wind Speed 6 mph (ENE)    
Max Wind Speed 16 mph    
Max Gust Speed 16 mph    
Visibility 10 miles    
Events      
Averages and records for this station are not official NWS values.
T = Trace of Precipitation, MM = Missing Value Source: NWS Daily Summary

Daily Weather History Graph

Daily Weather History Graph

Search for Another Location

Airport or City:

Astronomy

Sep. 17, 2019 Rise Set
Actual Time 7:16 AM CDT 7:34 PM CDT
Civil Twilight 6:52 AM CDT 7:58 PM CDT
Nautical Twilight 6:24 AM CDT 8:27 PM CDT
Astronomical Twilight 5:55 AM CDT 8:55 PM CDT
Moon 9:50 PM CDT (9/17) 10:12 AM CDT (9/17)
Length of Visible Light 13h 06m
Length of Day
12h 18m
Waning Gibbous, 89% of the Moon is Illuminated
Sep 17
Waning Gibbous
Sep 21
Last Quarter
Sep 28
New
Oct 5
First Quarter
Oct 13
Full

Hourly Weather History & Observations

Time (CDT) Temp. Heat Index Dew Point Humidity Pressure Visibility Wind Dir Wind Speed Gust Speed Precip Events Conditions
12:58 AM 77.7 °F - 67.1 °F 70% 29.93 in 10.0 mi ESE 8.1 mph - N/A   Clear
1:58 AM 76.1 °F - 66.4 °F 72% 29.93 in 10.0 mi ESE 8.1 mph - N/A   Clear
2:58 AM 73.4 °F - 66.0 °F 78% 29.94 in 10.0 mi ESE 4.6 mph - N/A   Clear
3:58 AM 72.9 °F - 66.2 °F 80% 29.93 in 10.0 mi Calm Calm - N/A   Clear
4:58 AM 72.7 °F - 66.2 °F 80% 29.93 in 10.0 mi Calm Calm - N/A   Clear
5:58 AM 71.2 °F - 65.5 °F 82% 29.93 in 10.0 mi Calm Calm - N/A   Clear
6:58 AM 71.6 °F - 65.8 °F 82% 29.94 in 10.0 mi Calm Calm - N/A   Clear
7:58 AM 70.7 °F - 66.4 °F 86% 29.95 in 10.0 mi Calm Calm - N/A   Scattered Clouds
8:08 AM 71.6 °F - 66.2 °F 83% 29.95 in 10.0 mi Calm Calm - N/A   Mostly Cloudy
8:13 AM 71.6 °F - 66.2 °F 83% 29.95 in 10.0 mi Calm Calm - N/A   Scattered Clouds
8:23 AM 71.6 °F - 68.0 °F 88% 29.96 in 10.0 mi Calm Calm - N/A   Mostly Cloudy
8:33 AM 73.4 °F - 68.0 °F 83% 29.96 in 10.0 mi Calm Calm - N/A   Mostly Cloudy
8:58 AM 74.1 °F - 69.6 °F 86% 29.96 in 10.0 mi ENE 4.6 mph - N/A   Mostly Cloudy
9:08 AM 75.2 °F - 69.8 °F 83% 29.96 in 10.0 mi ENE 4.6 mph - N/A   Overcast
9:58 AM 76.1 °F - 69.8 °F 81% 29.97 in 10.0 mi NE 3.5 mph - N/A   Overcast
10:28 AM 78.8 °F - 69.8 °F 74% 29.98 in 10.0 mi NE 3.5 mph - N/A   Mostly Cloudy
10:38 AM 78.8 °F - 69.8 °F 74% 29.98 in 10.0 mi NNE 4.6 mph - N/A   Scattered Clouds
10:53 AM 78.8 °F - 69.8 °F 74% 29.97 in 10.0 mi NW 3.5 mph - N/A   Mostly Cloudy
10:58 AM 80.6 °F 83.9 °F 69.8 °F 70% 29.98 in 10.0 mi North 6.9 mph - N/A   Mostly Cloudy
11:08 AM 80.6 °F 83.2 °F 68.0 °F 65% 29.98 in 10.0 mi NNE 8.1 mph - N/A   Scattered Clouds
11:58 AM 82.2 °F 85.1 °F 68.2 °F 62% 29.96 in 10.0 mi NE 6.9 mph - N/A   Partly Cloudy
12:33 PM 84.2 °F 87.3 °F 68.0 °F 58% 29.95 in 10.0 mi NE 8.1 mph - N/A   Scattered Clouds
12:38 PM 84.2 °F 87.3 °F 68.0 °F 58% 29.95 in 10.0 mi ENE 9.2 mph - N/A   Mostly Cloudy
12:58 PM 84.4 °F 87.6 °F 68.4 °F 58% 29.94 in 10.0 mi NE 10.4 mph - N/A   Overcast
1:53 PM 86.0 °F 89.4 °F 68.0 °F 55% 29.92 in 10.0 mi ENE 8.1 mph - N/A   Mostly Cloudy
1:58 PM 86.0 °F 89.4 °F 68.0 °F 55% 29.91 in 10.0 mi NE 10.4 mph - N/A   Mostly Cloudy
2:08 PM 86.0 °F 89.4 °F 68.0 °F 55% 29.91 in 10.0 mi ENE 8.1 mph - N/A   Overcast
2:43 PM 87.8 °F 91.4 °F 68.0 °F 52% 29.89 in 10.0 mi ENE 11.5 mph - N/A   Mostly Cloudy
2:53 PM 87.8 °F 91.4 °F 68.0 °F 52% 29.89 in 10.0 mi NE 10.4 mph - N/A   Mostly Cloudy
2:58 PM 87.8 °F 91.4 °F 68.2 °F 52% 29.88 in 10.0 mi East 11.5 mph 16.1 mph N/A   Overcast
3:58 PM 87.8 °F 91.4 °F 68.2 °F 52% 29.87 in 10.0 mi ENE 9.2 mph - N/A   Overcast
4:08 PM 87.8 °F 91.4 °F 68.0 °F 52% 29.87 in 10.0 mi East 10.4 mph - N/A   Overcast
4:18 PM 87.8 °F 91.4 °F 68.0 °F 52% 29.86 in 10.0 mi East 9.2 mph - N/A   Overcast
4:38 PM 86.0 °F 90.4 °F 69.8 °F 58% 29.86 in 10.0 mi East 16.1 mph - N/A   Overcast
4:43 PM 86.0 °F 90.4 °F 69.8 °F 58% 29.86 in 10.0 mi East 13.8 mph - N/A   Overcast
4:58 PM 85.6 °F 89.7 °F 69.1 °F 58% 29.86 in 10.0 mi East 10.4 mph - N/A   Overcast
5:58 PM 86.0 °F 89.4 °F 68.2 °F 55% 29.86 in 10.0 mi East 6.9 mph - N/A   Mostly Cloudy
6:58 PM 85.5 °F 89.1 °F 68.5 °F 57% 29.86 in 10.0 mi ENE 10.4 mph - N/A   Overcast
7:58 PM 82.8 °F 86.0 °F 68.4 °F 62% 29.86 in 10.0 mi ENE 6.9 mph - N/A   Clear
8:58 PM 81.5 °F 84.6 °F 68.9 °F 65% 29.88 in 10.0 mi ENE 6.9 mph - N/A   Clear
9:58 PM 80.4 °F 83.6 °F 69.8 °F 70% 29.90 in 10.0 mi ENE 6.9 mph - N/A   Clear
10:33 PM 80.6 °F 83.9 °F 69.8 °F 70% 29.89 in 10.0 mi ENE 8.1 mph - N/A   Mostly Cloudy
10:43 PM 78.8 °F - 69.8 °F 74% 29.89 in 10.0 mi East 10.4 mph - N/A   Scattered Clouds
10:58 PM 79.3 °F - 69.8 °F 72% 29.89 in 10.0 mi East 8.1 mph - N/A   Partly Cloudy
11:58 PM 77.9 °F - 69.6 °F 76% 29.89 in 10.0 mi East 3.5 mph - N/A   Clear